Orbital Elements at Epoch 2459000.5 (2020-May-31.0) TDB
Reference: JPL 22 (heliocentric ecliptic J2000)
Element | Value | Uncertainty (1-sigma) | Units |
e | .1317362590375967 | 5.9709e-08 | |
a | 2.560985834960895 | 1.3148e-08 | au |
q | 2.223611141614871 | 1.5224e-07 | au |
i | 16.98249696740576 | 5.1561e-06 | deg |
node | 93.35510897947401 | 2.3581e-05 | deg |
peri | 23.06456455314153 | 3.9689e-05 | deg |
M | 131.0465302895905 | 2.9019e-05 | deg |
tp | 2458455.580665840423 (2018-Dec-03.08066584) | 0.00012087 | TDB |
period | 1496.956537986496 4.10 | 1.1528e-05 3.156e-08 | d yr |
n | .2404879439480745 | 1.852e-09 | deg/d |
Q | 2.89836052830692 | 1.488e-08 | au |
|
| | Orbit Determination Parameters
Additional Information
|